CW2001 Weather Reports


time (UTC)temp
F
wind
direction
speed
knots
gust
knots
rain 1hr
in
rain 24hr
in
rain mn
in
humidity
%
barometer
mb
20211017162620 59 195 0.9 4.3 0.00 0.00 0.00 54 1023.2
20211017162119 59 178 0.9 2.6 0.00 0.00 0.00 56 1023.2
20211017161620 58 173 0.9 2.6 0.00 0.00 0.00 57 1023.3
20211017161119 58 157 0.9 2.6 0.00 0.00 0.00 57 1023.3
20211017160620 57 204 1.7 4.3 0.00 0.00 0.00 59 1023.3
20211017160120 57 209 0.9 2.6 0.00 0.00 0.00 61 1023.3
20211017155619 56 202 0.9 2.6 0.00 0.00 0.00 62 1023.3
20211017155120 56 204 0.9 4.3 0.00 0.00 0.00 62 1023.3
20211017154619 55 258 0.9 2.6 0.00 0.00 0.00 63 1023.3
20211017154120 55 237 1.7 2.6 0.00 0.00 0.00 63 1023.3
20211017153619 54 165 0.0 1.7 0.00 0.00 0.00 66 1023.3
20211017153119 54 144 1.7 2.6 0.00 0.00 0.00 65 1023.3
20211017152620 53 203 0.9 2.6 0.00 0.00 0.00 66 1023.3
20211017152119 53 200 0.9 2.6 0.00 0.00 0.00 64 1023.3
20211017151620 53 211 1.7 2.6 0.00 0.00 0.00 65 1023.2
20211017151119 52 192 0.9 2.6 0.00 0.00 0.00 66 1023.3
20211017150620 52 202 0.9 2.6 0.00 0.00 0.00 66 1023.3
20211017150120 51 205 2.6 1.7 0.00 0.00 0.00 64 1023.0
20211017145620 49 231 2.6 1.7 0.00 0.00 0.00 58 1021.4
20211017145119 49 231 2.6 1.7 0.00 0.00 0.00 58 1021.4
20211017144620 49 231 2.6 1.7 0.00 0.00 0.00 58 1021.4
20211017144120 49 231 2.6 1.7 0.00 0.00 0.00 58 1021.4
20211017143619 49 231 2.6 1.7 0.00 0.00 0.00 58 1021.4
20211017143120 49 231 2.6 1.7 0.00 0.00 0.00 58 1021.4
20211017142619 49 231 2.6 1.7 0.00 0.00 0.00 58 1021.4
20211017142119 49 231 2.6 1.7 0.00 0.00 0.00 58 1021.4
20211017141620 49 231 2.6 1.7 0.00 0.00 0.00 58 1021.4
20211017141119 49 231 2.6 1.7 0.00 0.00 0.00 58 1021.4
20211017140619 49 231 2.6 1.7 0.00 0.00 0.00 58 1021.4
20211017140120 49 231 2.6 1.7 0.00 0.00 0.00 58 1021.4
20211017135620 49 231 2.6 1.7 0.00 0.00 0.00 58 1021.4
20211017135120 49 231 2.6 1.7 0.00 0.00 0.00 58 1021.4
20211017134620 49 231 2.6 1.7 0.00 0.00 0.00 58 1021.4
20211017134119 49 231 2.6 1.7 0.00 0.00 0.00 58 1021.4
20211017133620 49 231 2.6 1.7 0.00 0.00 0.00 58 1021.4
20211017133119 49 231 2.6 1.7 0.00 0.00 0.00 58 1021.4
20211017132619 49 231 2.6 1.7 0.00 0.00 0.00 58 1021.4
20211017132120 49 231 2.6 1.7 0.00 0.00 0.00 58 1021.4
20211017131619 49 231 2.6 1.7 0.00 0.00 0.00 58 1021.4
20211017131119 49 231 2.6 1.7 0.00 0.00 0.00 58 1021.4
20211017130620 49 231 2.6 1.7 0.00 0.00 0.00 58 1021.4
20211017130119 49 231 2.6 1.7 0.00 0.00 0.00 58 1021.4
20211017125620 49 231 2.6 1.7 0.00 0.00 0.00 58 1021.4
20211017125119 49 231 2.6 1.7 0.00 0.00 0.00 58 1021.4
20211017124619 49 231 2.6 1.7 0.00 0.00 0.00 58 1021.4
20211017124119 49 231 2.6 1.7 0.00 0.00 0.00 58 1021.4
20211017123620 49 231 2.6 1.7 0.00 0.00 0.00 58 1021.4
20211017123119 49 231 2.6 1.7 0.00 0.00 0.00 58 1021.4
20211017122619 49 231 2.6 1.7 0.00 0.00 0.00 58 1021.4
20211017122119 49 231 2.6 1.7 0.00 0.00 0.00 58 1021.4
20211017121619 49 231 2.6 1.7 0.00 0.00 0.00 58 1021.4
20211017121120 49 231 2.6 1.7 0.00 0.00 0.00 58 1021.4
20211017120620 49 231 2.6 1.7 0.00 0.00 0.00 58 1021.4
20211017120119 49 231 2.6 1.7 0.00 0.00 0.00 58 1021.4
20211017115620 49 231 2.6 1.7 0.00 0.00 0.00 58 1021.4
20211017115120 49 231 2.6 1.7 0.00 0.00 0.00 58 1021.4
20211017114619 49 231 2.6 1.7 0.00 0.00 0.00 58 1021.4
20211017114119 49 231 2.6 1.7 0.00 0.00 0.00 58 1021.4
20211017113619 49 231 2.6 1.7 0.00 0.00 0.00 58 1021.4
20211017113119 49 231 2.6 1.7 0.00 0.00 0.00 58 1021.4
20211017112619 49 231 2.6 1.7 0.00 0.00 0.00 58 1021.4
20211017112119 49 231 2.6 1.7 0.00 0.00 0.00 58 1021.4
20211017111619 49 231 2.6 1.7 0.00 0.00 0.00 58 1021.4
20211017111119 49 231 2.6 1.7 0.00 0.00 0.00 58 1021.4
20211017110619 49 231 2.6 1.7 0.00 0.00 0.00 58 1021.4
20211017110120 49 231 2.6 1.7 0.00 0.00 0.00 58 1021.4
20211017105619 49 231 2.6 1.7 0.00 0.00 0.00 58 1021.4
20211017105119 49 231 2.6 1.7 0.00 0.00 0.00 58 1021.4
20211017104619 49 231 2.6 1.7 0.00 0.00 0.00 58 1021.4
20211017104120 49 231 2.6 1.7 0.00 0.00 0.00 58 1021.4
20211017103619 49 231 2.6 1.7 0.00 0.00 0.00 58 1021.4
20211017103119 49 231 2.6 1.7 0.00 0.00 0.00 58 1021.4
20211017102620 49 231 2.6 1.7 0.00 0.00 0.00 58 1021.4
20211017102119 49 231 2.6 1.7 0.00 0.00 0.00 58 1021.4
20211017101619 49 231 2.6 1.7 0.00 0.00 0.00 58 1021.4
20211017101119 49 231 2.6 1.7 0.00 0.00 0.00 58 1021.4
20211017100620 49 231 2.6 1.7 0.00 0.00 0.00 58 1021.4
20211017100119 49 231 2.6 1.7 0.00 0.00 0.00 58 1021.4
20211017095619 49 231 2.6 1.7 0.00 0.00 0.00 58 1021.4
20211017095119 49 231 2.6 1.7 0.00 0.00 0.00 58 1021.4
20211017094619 49 231 2.6 1.7 0.00 0.00 0.00 58 1021.4
20211017094119 49 231 2.6 1.7 0.00 0.00 0.00 58 1021.4
20211017093619 49 231 2.6 1.7 0.00 0.00 0.00 58 1021.4
20211017093119 49 231 2.6 1.7 0.00 0.00 0.00 58 1021.4
20211017092619 49 231 2.6 1.7 0.00 0.00 0.00 58 1021.4
20211017092120 49 231 2.6 1.7 0.00 0.00 0.00 58 1021.4
20211017091618 49 231 2.6 1.7 0.00 0.00 0.00 58 1021.4
20211017091119 49 231 2.6 1.7 0.00 0.00 0.00 58 1021.4
20211017090619 49 231 2.6 1.7 0.00 0.00 0.00 58 1021.4
20211017090119 49 231 2.6 1.7 0.00 0.00 0.00 58 1021.4
20211017085619 49 231 2.6 1.7 0.00 0.00 0.00 58 1021.4
20211017085119 49 231 2.6 1.7 0.00 0.00 0.00 58 1021.4
20211017084619 49 231 2.6 1.7 0.00 0.00 0.00 58 1021.4
20211017084118 49 231 2.6 1.7 0.00 0.00 0.00 58 1021.4
20211017083619 49 231 2.6 1.7 0.00 0.00 0.00 58 1021.4
20211017083119 49 231 2.6 1.7 0.00 0.00 0.00 58 1021.4
20211017082618 49 231 2.6 1.7 0.00 0.00 0.00 58 1021.4
20211017082119 49 231 2.6 1.7 0.00 0.00 0.00 58 1021.4
20211017081619 49 231 2.6 1.7 0.00 0.00 0.00 58 1021.4
20211017081119 49 231 2.6 1.7 0.00 0.00 0.00 58 1021.4
20211017080619 49 231 2.6 1.7 0.00 0.00 0.00 58 1021.4
20211017080119 49 231 2.6 1.7 0.00 0.00 0.00 58 1021.4
20211017075619 49 231 2.6 1.7 0.00 0.00 0.00 58 1021.4
20211017075118 49 231 2.6 1.7 0.00 0.00 0.00 58 1021.4
20211017074619 49 231 2.6 1.7 0.00 0.00 0.00 58 1021.4
20211017074119 49 231 2.6 1.7 0.00 0.00 0.00 58 1021.4
20211017073619 49 231 2.6 1.7 0.00 0.00 0.00 58 1021.4
20211017073119 49 231 2.6 1.7 0.00 0.00 0.00 58 1021.4
20211017072619 49 231 2.6 1.7 0.00 0.00 0.00 58 1021.4
20211017072119 49 231 2.6 1.7 0.00 0.00 0.00 58 1021.4
20211017071618 49 231 2.6 1.7 0.00 0.00 0.00 58 1021.4
20211017071119 49 231 2.6 1.7 0.00 0.00 0.00 58 1021.4
20211017070619 49 231 2.6 1.7 0.00 0.00 0.00 58 1021.4
20211017070118 49 231 2.6 1.7 0.00 0.00 0.00 58 1021.4
20211017065619 49 231 2.6 1.7 0.00 0.00 0.00 58 1021.4
20211017065119 49 231 2.6 1.7 0.00 0.00 0.00 58 1021.4
20211017064619 49 231 2.6 1.7 0.00 0.00 0.00 58 1021.4
20211017064118 49 231 2.6 1.7 0.00 0.00 0.00 58 1021.4
20211017063618 49 231 2.6 1.7 0.00 0.00 0.00 58 1021.4
20211017063119 49 231 2.6 1.7 0.00 0.00 0.00 58 1021.4
20211017062618 49 231 2.6 1.7 0.00 0.00 0.00 58 1021.4
20211017062119 49 231 2.6 1.7 0.00 0.00 0.00 58 1021.4
20211017061619 49 231 2.6 1.7 0.00 0.00 0.00 58 1021.4
20211017061119 49 231 2.6 1.7 0.00 0.00 0.00 58 1021.4
20211017060618 49 231 2.6 1.7 0.00 0.00 0.00 58 1021.4
20211017060119 49 231 2.6 1.7 0.00 0.00 0.00 58 1021.4
20211017055619 49 231 2.6 1.7 0.00 0.00 0.00 58 1021.4
20211017055118 49 231 2.6 1.7 0.00 0.00 0.00 58 1021.4
20211017054619 49 231 2.6 1.7 0.00 0.00 0.00 58 1021.4
20211017054119 49 231 2.6 1.7 0.00 0.00 0.00 58 1021.4
20211017053619 49 231 2.6 6.1 0.00 0.00 0.00 58 1021.4
20211017053119 50 270 0.9 1.7 0.00 0.00 0.00 57 1021.4
20211017052619 50 270 0.9 2.6 0.00 0.00 0.00 57 1021.4
20211017052118 50 238 2.6 4.3 0.00 0.00 0.00 57 1021.5
20211017051619 50 250 2.6 5.2 0.00 0.00 0.00 57 1021.4
20211017051118 50 247 1.7 2.6 0.00 0.00 0.00 57 1021.5
20211017050619 50 239 2.6 5.2 0.00 0.00 0.00 56 1021.5
20211017050118 50 226 1.7 2.6 0.00 0.00 0.00 57 1021.4
20211017045619 50 239 1.7 5.2 0.00 0.00 0.00 56 1021.5
20211017045118 50 226 1.7 5.2 0.00 0.00 0.00 56 1021.5
20211017044619 50 246 2.6 6.1 0.00 0.00 0.00 56 1021.4
20211017044118 50 243 2.6 4.3 0.00 0.00 0.00 56 1021.5
20211017043619 50 217 2.6 4.3 0.00 0.00 0.00 55 1021.6
20211017043118 50 266 1.7 5.2 0.00 0.00 0.00 56 1021.7
20211017042618 51 221 2.6 6.1 0.00 0.00 0.00 56 1021.7
20211017042119 51 241 2.6 7.0 0.00 0.00 0.00 56 1021.7
20211017041618 51 226 1.7 4.3 0.00 0.00 0.00 56 1021.7
20211017041119 51 236 1.7 5.2 0.00 0.00 0.00 56 1021.6
20211017040618 51 228 2.6 6.1 0.00 0.00 0.00 55 1021.6
20211017040119 51 221 2.6 8.7 0.00 0.00 0.00 56 1021.7
20211017035620 51 239 2.6 6.1 0.00 0.00 0.00 56 1021.6
20211017035119 51 225 2.6 5.2 0.00 0.00 0.00 56 1021.6
20211017034618 51 227 1.7 4.3 0.00 0.00 0.00 56 1021.6
20211017034119 51 227 2.6 7.0 0.00 0.00 0.00 56 1021.5
20211017033619 51 225 1.7 2.6 0.00 0.00 0.00 56 1021.5
20211017033119 51 218 2.6 5.2 0.00 0.00 0.00 55 1021.5
20211017032619 51 214 2.6 6.1 0.00 0.00 0.00 55 1021.5
20211017032118 51 218 1.7 5.2 0.00 0.00 0.00 55 1021.4
20211017031619 51 229 1.7 5.2 0.00 0.00 0.00 55 1021.4
20211017031118 51 224 1.7 6.1 0.00 0.00 0.00 55 1021.4
20211017030618 52 236 2.6 5.2 0.00 0.00 0.00 54 1021.4
20211017030118 52 219 2.6 7.0 0.00 0.00 0.00 54 1021.4
20211017025618 52 216 2.6 5.2 0.00 0.00 0.00 54 1021.3
20211017025119 52 227 2.6 6.1 0.00 0.00 0.00 54 1021.3
20211017024618 52 220 2.6 6.1 0.00 0.00 0.00 54 1021.4
20211017024119 52 217 1.7 5.2 0.00 0.00 0.00 54 1021.4
20211017023618 52 211 1.7 4.3 0.00 0.00 0.00 54 1021.4
20211017023119 52 218 2.6 7.0 0.00 0.00 0.00 53 1021.4
20211017022618 52 211 2.6 7.0 0.00 0.00 0.00 53 1021.3
20211017022119 52 210 2.6 4.3 0.00 0.00 0.00 53 1021.3
20211017021619 52 211 2.6 7.8 0.00 0.00 0.00 53 1021.3
20211017021118 53 205 2.6 5.2 0.00 0.00 0.00 53 1021.3
20211017020619 53 208 2.6 6.1 0.00 0.00 0.00 53 1021.3
20211017020118 53 207 2.6 7.0 0.00 0.00 0.00 53 1021.3
20211017015619 53 203 2.6 4.3 0.00 0.00 0.00 53 1021.2
20211017015118 53 210 2.6 5.2 0.00 0.00 0.00 53 1021.2
20211017014618 53 220 1.7 5.2 0.00 0.00 0.00 52 1021.2
20211017014118 53 207 1.7 2.6 0.00 0.00 0.00 53 1021.2
20211017013619 53 211 1.7 2.6 0.00 0.00 0.00 52 1021.2
20211017013119 53 205 2.6 4.3 0.00 0.00 0.00 52 1021.3
20211017012618 53 214 1.7 4.3 0.00 0.00 0.00 51 1021.3
20211017012118 53 207 1.7 2.6 0.00 0.00 0.00 52 1021.4
20211017011619 54 207 1.7 5.2 0.00 0.00 0.00 51 1021.4
20211017011118 54 221 1.7 4.3 0.00 0.00 0.00 51 1021.3
20211017010618 54 220 1.7 2.6 0.00 0.00 0.00 51 1021.3
20211017010118 54 204 1.7 2.6 0.00 0.00 0.00 51 1021.3
20211017005618 54 219 1.7 2.6 0.00 0.00 0.00 51 1021.3
20211017005118 54 197 1.7 2.6 0.00 0.00 0.00 51 1021.3
20211017004619 54 214 1.7 2.6 0.00 0.00 0.00 50 1021.2
20211017004118 54 201 1.7 2.6 0.00 0.00 0.00 50 1021.2
20211017003618 54 191 1.7 2.6 0.00 0.00 0.00 51 1021.2
20211017003118 55 197 1.7 2.6 0.00 0.00 0.00 50 1021.1
20211017002618 55 196 1.7 2.6 0.00 0.00 0.00 49 1021.1
20211017002118 55 202 0.9 2.6 0.00 0.00 0.00 49 1021.0
20211017001618 56 202 0.9 2.6 0.00 0.00 0.00 48 1021.0
20211017001118 56 204 1.7 2.6 0.00 0.00 0.00 47 1021.0
20211017000618 57 226 0.9 2.6 0.00 0.00 0.00 46 1021.0
20211017000118 57 217 0.9 2.6 0.00 0.00 0.00 45 1020.9
20211016235618 57 213 0.9 2.6 0.00 0.00 0.00 45 1020.9
20211016235118 58 205 0.9 1.7 0.00 0.00 0.00 44 1020.8
20211016234618 58 223 0.9 2.6 0.00 0.00 0.00 44 1020.9
20211016234117 58 225 0.9 1.7 0.00 0.00 0.00 43 1020.9
20211016233618 59 250 0.9 2.6 0.00 0.00 0.00 43 1020.8
20211016233118 59 225 0.9 2.6 0.00 0.00 0.00 42 1020.9
20211016232618 60 216 1.7 2.6 0.00 0.00 0.00 41 1020.9
20211016232118 60 286 1.7 2.6 0.00 0.00 0.00 41 1020.8
20211016231617 60 256 1.7 5.2 0.00 0.00 0.00 39 1020.8
20211016231118 60 258 2.6 6.1 0.00 0.00 0.00 39 1020.8
20211016230618 61 262 1.7 5.2 0.00 0.00 0.00 39 1020.9
20211016230118 61 256 2.6 5.2 0.00 0.00 0.00 39 1020.9
20211016225618 61 264 3.5 7.0 0.00 0.00 0.00 38 1020.9
20211016225118 62 270 1.7 5.2 0.00 0.00 0.00 39 1021.0
20211016224618 62 268 4.3 7.8 0.00 0.00 0.00 37 1021.0
20211016224119 62 262 4.3 7.8 0.00 0.00 0.00 37 1021.0
20211016223618 62 274 1.7 7.0 0.00 0.00 0.00 38 1021.0
20211016223118 63 266 4.3 7.0 0.00 0.00 0.00 36 1021.0
20211016222618 63 295 4.3 7.8 0.00 0.00 0.00 36 1021.1
20211016222118 63 264 6.1 11.3 0.00 0.00 0.00 35 1021.1
20211016221618 63 277 4.3 7.8 0.00 0.00 0.00 35 1021.1
20211016221118 64 301 4.3 8.7 0.00 0.00 0.00 34 1021.1
20211016220618 64 285 6.1 10.4 0.00 0.00 0.00 34 1021.1
20211016220118 64 287 5.2 10.4 0.00 0.00 0.00 34 1021.1
20211016215618 64 269 6.1 11.3 0.00 0.00 0.00 33 1021.1
20211016215118 64 256 4.3 8.7 0.00 0.00 0.00 32 1021.1
20211016214618 64 275 3.5 7.0 0.00 0.00 0.00 32 1021.1
20211016214118 64 271 5.2 11.3 0.00 0.00 0.00 32 1021.2
20211016213618 64 254 6.1 8.7 0.00 0.00 0.00 32 1021.1
20211016213118 64 257 4.3 7.8 0.00 0.00 0.00 32 1021.2
20211016212618 64 267 4.3 10.4 0.00 0.00 0.00 32 1021.2
20211016212118 64 277 6.1 13.0 0.00 0.00 0.00 31 1021.1
20211016211618 64 286 4.3 8.7 0.00 0.00 0.00 32 1021.2
20211016211118 64 274 4.3 10.4 0.00 0.00 0.00 32 1021.3
20211016210617 64 298 7.8 12.2 0.00 0.00 0.00 31 1021.3
20211016210118 64 303 6.1 12.2 0.00 0.00 0.00 32 1021.3
20211016205618 64 264 6.1 12.2 0.00 0.00 0.00 31 1021.3
20211016205118 64 265 4.3 7.8 0.00 0.00 0.00 34 1021.4
20211016204618 63 276 7.0 11.3 0.00 0.00 0.00 33 1021.4
20211016204118 63 276 2.6 13.0 0.00 0.00 0.00 33 1021.4
20211016203618 63 268 8.7 13.0 0.00 0.00 0.00 33 1021.4
20211016203118 63 277 4.3 10.4 0.00 0.00 0.00 34 1021.4
20211016202617 63 302 6.1 13.0 0.00 0.00 0.00 34 1021.4
20211016202118 63 296 5.2 13.0 0.00 0.00 0.00 35 1021.4
20211016201617 63 295 6.1 13.9 0.00 0.00 0.00 35 1021.3
20211016201118 63 256 7.0 13.0 0.00 0.00 0.00 35 1021.4
20211016200618 62 262 8.7 14.8 0.00 0.00 0.00 35 1021.3
20211016200118 62 294 6.1 14.8 0.00 0.00 0.00 34 1021.4
20211016195618 62 299 6.1 15.6 0.00 0.00 0.00 35 1021.5
20211016195118 62 269 8.7 13.0 0.00 0.00 0.00 35 1021.6
20211016194618 62 302 8.7 13.9 0.00 0.00 0.00 35 1021.6
20211016194117 62 280 6.1 12.2 0.00 0.00 0.00 35 1021.7
20211016193617 62 306 6.1 13.0 0.00 0.00 0.00 36 1021.6
20211016193117 62 274 7.8 13.0 0.00 0.00 0.00 36 1021.7
20211016192618 62 284 5.2 10.4 0.00 0.00 0.00 37 1021.7
20211016192118 62 274 5.2 8.7 0.00 0.00 0.00 39 1021.7
20211016191618 61 295 7.0 13.0 0.00 0.00 0.00 38 1021.7
20211016191118 61 280 7.0 13.0 0.00 0.00 0.00 38 1021.8
20211016190617 61 284 7.8 14.8 0.00 0.00 0.00 38 1021.9
20211016190118 61 302 5.2 11.3 0.00 0.00 0.00 38 1021.9
20211016185618 61 275 8.7 14.8 0.00 0.00 0.00 38 1022.0
20211016185118 61 269 6.1 12.2 0.00 0.00 0.00 38 1021.9
20211016184618 61 317 6.1 12.2 0.00 0.00 0.00 39 1022.1
20211016184117 61 281 6.1 13.9 0.00 0.00 0.00 39 1022.2
20211016183618 61 277 6.1 12.2 0.00 0.00 0.00 38 1022.2
20211016183117 61 265 7.8 14.8 0.00 0.00 0.00 37 1022.3
20211016182618 61 315 6.1 13.9 0.00 0.00 0.00 40 1022.3
20211016182118 61 279 6.1 12.2 0.00 0.00 0.00 39 1022.4
20211016181617 60 294 6.1 10.4 0.00 0.00 0.00 40 1022.4
20211016181118 60 283 7.8 13.0 0.00 0.00 0.00 40 1022.4
20211016180618 60 293 5.2 13.0 0.00 0.00 0.00 41 1022.4
20211016180117 60 300 6.1 10.4 0.00 0.00 0.00 40 1022.4
20211016175617 59 292 6.1 13.9 0.00 0.00 0.00 40 1022.5
20211016175117 59 290 7.8 14.8 0.00 0.00 0.00 40 1022.6
20211016174617 59 284 7.0 13.0 0.00 0.00 0.00 42 1022.6
20211016174118 58 282 7.8 13.9 0.00 0.00 0.00 42 1022.6
20211016173617 58 286 6.1 13.9 0.00 0.00 0.00 41 1022.7
20211016173117 58 276 6.1 13.0 0.00 0.00 0.00 41 1022.8
20211016172618 58 273 8.7 13.9 0.00 0.00 0.00 40 1022.8
20211016172117 57 284 6.1 10.4 0.00 0.00 0.00 43 1022.7
20211016171618 57 281 5.2 13.0 0.00 0.00 0.00 42 1022.9
20211016171117 57 285 10.4 15.6 0.00 0.00 0.00 43 1022.9
20211016170618 57 279 7.8 13.0 0.00 0.00 0.00 43 1022.9
20211016170117 56 295 5.2 11.3 0.00 0.00 0.00 46 1022.9
20211016165618 56 295 6.1 13.0 0.00 0.00 0.00 45 1022.9
20211016165117 55 305 7.8 15.6 0.00 0.00 0.00 45 1022.9
20211016164618 55 262 7.8 13.9 0.00 0.00 0.00 45 1022.9
20211016164118 55 299 7.8 14.8 0.00 0.00 0.00 48 1022.9
20211016163617 55 301 8.7 13.0 0.00 0.00 0.00 47 1022.9
20211016163118 54 287 7.8 13.9 0.00 0.00 0.00 52 1022.9